Tracking 30703 objects as of 13-Jun-2025
HD Live streaming from Space Station
objects crossing your sky now

STARLINK-6045

Track STARLINK-6045 now!
10-day predictions
STARLINK-6045 is classified as:


NORAD ID: 56462
Int'l Code: 2023-064Q
Perigee: 577.3 km
Apogee: 581.1 km
Inclination: 70.0 °
Period: 96.1 minutes
Semi major axis: 6950 km
RCS: Unknown
Launch date: May 10, 2023
Source: United States (US)
Launch site: AIR FORCE WESTERN TEST RANGE (AFWTR)
Your satellite tracking list
Your tracking list is empty




NASA's NSSDC Master Catalog

Two Line Element Set (TLE):
1 56462U 23064Q   25163.82429561 -.00000002  00000-0  76277-5 0  9999
2 56462  70.0003  64.6808 0002780 271.6399  88.4442 14.98333621116177
Source of the keplerian elements: AFSPC